Weather History for KFUL - May, 2014

Change the Weather History Date:

Saturday, May 3, 2014

  Actual Average Record
Temperature  
Mean Temperature 76 °F 65 °F  
Max Temperature 90 °F 75 °F 104 °F (2004)
Min Temperature 61 °F 56 °F 51 °F (2002)
Degree Days  
Heating Degree Days 0 2  
Month to date heating degree days 0 6  
Since 1 July heating degree days 589 1200  
Cooling Degree Days 11 2  
Month to date cooling degree days 40 6  
Year to date cooling degree days 187 58  
Growing Degree Days 25 (Base 50)    
Moisture  
Dew Point 45 °F    
Average Humidity 41    
Maximum Humidity 65    
Minimum Humidity 16    
Precipitation  
Precipitation 0.00 in 0.02 in 0.30 in (2003)
Month to date precipitation 0.00 0.05  
Year to date precipitation 3.46 9.36  
Since 1 July precipitation 4.77  
Snow  
Snow 0.00 in - - ()
Month to date snowfall 0.0  
Year to date snowfall 0.0  
Since 1 July snowfall 0.0  
Snow Depth 0.00 in    
Sea Level Pressure  
Sea Level Pressure 29.89 in    
Wind  
Wind Speed 4 mph (SSW)    
Max Wind Speed 12 mph    
Max Gust Speed 16 mph    
Visibility 10 miles    
Events      
T = Trace of Precipitation, MM = Missing Value Source: NWS Daily Summary

Daily Weather History Graph

Daily Weather History Graph

Search for Another Location

Airport or City:

Trip Planner

Search our weather history database for the weather conditions in past years. The results will help you decide how hot, cold, wet, or windy it might be!

Date:

Astronomy

May. 03, 2014 Rise Set
Actual Time 6:00 AM PDT 7:37 PM PDT
Civil Twilight 5:34 AM PDT 8:03 PM PDT
Nautical Twilight 5:02 AM PDT 8:36 PM PDT
Astronomical Twilight 4:28 AM PDT 9:10 PM PDT
Moon 9:37 AM PDT (5/3) 11:45 PM PDT (5/3)
Length of Visible Light 14h 29m
Length of Day
13h 36m
Waxing Crescent, 20% of the Moon is Illuminated
May 3
Waxing Crescent
May 6
First Quarter
May 14
Full
May 21
Last Quarter
May 28
New

Hourly Weather History & Observations

Time (PDT) Temp. Dew Point Humidity Pressure Visibility Wind Dir Wind Speed Gust Speed Precip Events Conditions
12:53 AM 69.1 °F 51.1 °F 53% 29.92 in 10.0 mi Calm Calm - N/A   Clear
1:53 AM 66.9 °F 51.1 °F 57% 29.91 in 10.0 mi Calm Calm - N/A   Clear
2:53 AM 64.0 °F 51.1 °F 63% 29.89 in 10.0 mi Calm Calm - N/A   Clear
3:53 AM 64.0 °F 51.1 °F 63% 29.89 in 10.0 mi Calm Calm - N/A   Clear
4:53 AM 63.0 °F 50.0 °F 63% 29.89 in 10.0 mi Calm Calm - N/A   Clear
5:53 AM 61.0 °F 48.0 °F 62% 29.88 in 10.0 mi East 3.5 mph - N/A   Clear
6:53 AM 64.0 °F 46.9 °F 54% 29.90 in 10.0 mi Calm Calm - N/A   Clear
7:53 AM 70.0 °F 42.1 °F 36% 29.90 in 10.0 mi Calm Calm - N/A   Clear
8:53 AM 75.9 °F 39.9 °F 27% 29.91 in 10.0 mi Calm Calm - N/A   Clear
9:53 AM 81.0 °F 37.9 °F 21% 29.91 in 10.0 mi South 5.8 mph - N/A   Clear
10:53 AM 84.9 °F 37.0 °F 18% 29.92 in 10.0 mi Variable 5.8 mph - N/A   Clear
11:53 AM 89.1 °F 43.0 °F 20% 29.90 in 10.0 mi Variable 5.8 mph - N/A   Clear
12:53 PM 89.1 °F 37.9 °F 16% 29.89 in 10.0 mi SSW 9.2 mph - N/A   Clear
1:53 PM 89.1 °F 42.1 °F 19% 29.89 in 10.0 mi SW 8.1 mph - N/A   Clear
2:53 PM 87.1 °F 39.9 °F 19% 29.88 in 10.0 mi South 11.5 mph - N/A   Clear
3:53 PM 84.9 °F 39.0 °F 20% 29.86 in 10.0 mi Variable 6.9 mph - N/A   Clear
4:53 PM 84.0 °F 44.1 °F 25% 29.85 in 10.0 mi South 8.1 mph - N/A   Clear
5:53 PM 82.0 °F 44.1 °F 26% 29.85 in 10.0 mi South 6.9 mph - N/A   Clear
6:53 PM 81.0 °F 46.0 °F 29% 29.85 in 10.0 mi West 4.6 mph - N/A   Clear
7:53 PM 75.9 °F 42.1 °F 30% 29.86 in 10.0 mi WNW 3.5 mph - N/A   Clear
8:53 PM 73.9 °F 44.1 °F 34% 29.88 in 10.0 mi Variable 3.5 mph - N/A   Clear
9:53 PM 70.0 °F 46.9 °F 44% 29.90 in 10.0 mi Calm Calm - N/A   Clear
10:53 PM 68.0 °F 50.0 °F 52% 29.91 in 10.0 mi SW 3.5 mph - N/A   Clear
11:53 PM 66.9 °F 50.0 °F 54% 29.91 in 10.0 mi WSW 3.5 mph - N/A   Clear